User: anonymous   Login
Location: Unspecified
(0.0000°N, 0.0000°E)
Time: 19:01:02
(UTC+00:00)
Language:

Megsat 1 - Orbit

View from above orbital plane
View from above orbital plane
View from above satellite
View from above satellite

Ground track
Ground track

The orbit data is extracted from the following two-line orbital elements,

1 26545U 00057A   17084.87219340 +.00000053 +00000-0 +24057-4 0  9998
2 26545 064.5559 345.4623 0048192 237.6936 121.9499 14.84719964891977
Epoch (UTC): 25 March 2017 20:55:57
Eccentricity: 0.0048192
inclination: 64.5559°
perigee height: 581 km
apogee height: 648 km
right ascension of ascending node: 345.4623°
argument of perigee: 237.6936°
revolutions per day: 14.84719964
mean anomaly at epoch: 121.9499°
orbit number at epoch: 89197

The dashed part of the orbit path shows where the satellite is in the earth's shadow,  

DLR